Location: Cactus School
(34.5700°N, 118.0931°W)
Time: 23:00:19
(UTC-07:00)

Vanguard 1 Rocket - All Passes

Search period start: 17 June 2018 00:00
Search period end: 27 June 2018 00:00
Orbit: 653 x 4224 km, 34.3° (Epoch: 17 June)

Date Brightness Start Highest point End Pass type
(mag) Time Alt. Az. Time Alt. Az. Time Alt. Az.
17 Jun - 00:42:25 10° W 00:53:24 39° SSW 01:12:14 10° SSE visible
17 Jun - 03:15:22 10° WSW 03:23:34 14° SW 03:33:21 10° SSW visible
17 Jun - 16:19:59 10° SSW 16:23:16 20° SSE 16:26:52 10° E daylight
17 Jun - 18:42:44 10° WSW 18:47:31 77° SSE 18:55:17 10° E daylight
17 Jun - 21:06:40 10° W 21:13:15 82° S 21:26:21 10° ESE visible
17 Jun - 23:31:10 10° W 23:40:32 50° SSW 23:58:17 10° SE visible
18 Jun - 01:59:16 10° WSW 02:09:50 22° SW 02:24:46 10° S visible
18 Jun - 17:32:31 10° SW 17:36:49 53° SSE 17:42:37 10° E daylight
18 Jun - 19:56:22 10° W 20:01:52 88° S 20:11:55 10° E daylight
18 Jun - 22:20:27 10° W 22:28:15 61° SSW 22:43:44 10° SE visible
19 Jun - 00:46:21 10° W 00:56:31 31° SSW 01:13:00 10° SSE visible
19 Jun - 16:22:28 10° SW 16:26:20 29° SSE 16:30:34 10° E daylight
19 Jun - 18:46:04 10° W 18:50:48 85° S 18:58:25 10° E daylight
19 Jun - 21:10:03 10° W 21:16:30 74° SSW 21:29:07 10° ESE visible
19 Jun - 23:34:46 10° W 23:43:42 40° SSW 23:59:48 10° SE visible
20 Jun - 02:05:05 10° WSW 02:13:01 15° SW 02:23:11 10° S visible
20 Jun - 15:13:01 10° S 15:15:47 15° SSE 15:18:25 10° ESE daylight
20 Jun - 17:35:42 10° WSW 17:40:03 67° SSE 17:45:51 10° E daylight
20 Jun - 19:59:45 10° W 20:05:10 84° S 20:14:57 10° E daylight
20 Jun - 22:23:54 10° W 22:31:26 50° SSW 22:45:53 10° SE visible
21 Jun - 00:50:46 10° WSW 00:59:42 23° SSW 01:13:08 10° SSE visible
21 Jun - 16:25:17 10° SW 16:29:30 41° SSE 16:34:01 10° E daylight
21 Jun - 18:49:26 10° W 18:54:08 88° S 19:01:33 10° E daylight
21 Jun - 21:13:27 10° W 21:19:44 63° SSW 21:31:46 10° ESE visible
21 Jun - 23:38:37 10° W 23:46:54 31° SSW 00:00:55 10° SSE visible
22 Jun - 15:15:01 10° SSW 15:18:57 23° SSE 15:22:30 10° E daylight
22 Jun - 17:38:58 10° WSW 17:43:20 79° S 17:49:04 10° E daylight
22 Jun - 20:03:08 10° W 20:08:27 76° S 20:17:55 10° ESE daylight
22 Jun - 22:27:30 10° W 22:34:41 40° SSW 22:47:44 10° SE visible
23 Jun - 00:56:09 10° WSW 01:03:01 16° SSW 01:12:11 10° S visible
23 Jun - 14:05:22 10° S 14:08:08 14° SSE 14:10:33 10° ESE daylight
23 Jun - 16:28:18 10° WSW 16:32:44 55° SSE 16:37:22 10° E daylight
23 Jun - 18:52:48 10° W 18:57:27 87° S 19:04:41 10° E daylight
23 Jun - 21:16:53 10° W 21:22:58 51° SSW 21:34:13 10° SE visible
23 Jun - 23:42:54 10° WSW 23:50:13 23° SSW 00:01:28 10° SSE visible
24 Jun - 15:17:31 10° SW 15:22:10 34° SSE 15:26:09 10° E daylight
24 Jun - 17:42:17 10° W 17:46:40 86° S 17:52:17 10° E daylight
24 Jun - 20:06:31 10° W 20:11:43 65° SSW 20:20:47 10° ESE daylight
24 Jun - 22:31:17 10° W 22:37:59 30° SSW 22:49:14 10° SSE visible
25 Jun - 14:06:50 10° SSW 14:11:24 21° SSE 14:14:59 10° ESE daylight
25 Jun - 16:31:28 10° WSW 16:36:01 70° SSE 16:40:41 10° E daylight
25 Jun - 18:56:10 10° W 19:00:46 80° S 19:07:49 10° ESE daylight
25 Jun - 21:20:26 10° W 21:26:15 40° SSW 21:36:24 10° SE visible
25 Jun - 23:48:04 10° WSW 23:53:36 15° SSW 00:01:01 10° S visible
26 Jun - 12:56:43 10° S 13:00:17 14° SSE 13:03:11 10° SE daylight
26 Jun - 15:20:19 10° SW 15:25:25 47° SSE 15:29:38 10° E daylight
26 Jun - 17:45:38 10° W 17:50:00 88° S 17:55:31 10° E daylight
26 Jun - 20:09:57 10° W 20:15:00 52° SSW 20:23:30 10° SE daylight
26 Jun - 22:35:28 10° WSW 22:41:19 22° SSW 22:50:12 10° SSE visible
